Date String (YYYY-MM-DD hh:mm:ss) UTC,Instrument flags,absolute air pressure of the measurement (hPa),sample flow rate (lpm),inlet stack bypass flow (lpm),air temperature of the measurement (°C),ambient temperature measured by the external sensor (°C),aerosol sample conditioner tube jacket temperature (°C),OPC LED temperature (°C),internal box temperature (°C),relative humidity of the measurement (%),span deviation,mass concentration of particles derived from Lorenz-Mie calculation of OPC scattering (μg/m³),mass concentration of particles derived from Lorenz-Mie calculation of OPC scattering (μg/m³),mass concentration of particles derived from Lorenz-Mie calculation of OPC scattering (μg/m³)
DateTimeUTC,F1_M11,P_M11,Q1_M11,Q2_M11,T1_M11,T2_M11,T3_M11,T4_M11,T5_M11,U1_M11,ZSPAN_M11,X2_M11,X0_M11,X1_M11
2023-07-19 23:00:00,SystemResetWarning,0836.4,5.00,000.00,030.5,027.3,000.0,038.6,031.1,34.1,0000.0,0005.10,0011.66,0004.43
2023-07-19 23:01:00,SystemResetWarning,0836.5,5.00,000.00,030.5,027.6,000.0,038.6,031.2,34.3,0000.0,0005.05,0011.17,0004.44
2023-07-19 23:02:00,SystemResetWarning,0836.5,5.00,000.00,030.6,027.9,000.0,038.6,031.3,34.1,0000.0,0005.03,0010.80,0004.46
2023-07-19 23:03:00,SystemResetWarning,0836.5,5.00,000.00,030.6,027.4,000.0,038.6,031.3,33.3,0000.0,0005.01,0011.29,0004.46
2023-07-19 23:04:00,SystemResetWarning,0836.5,4.99,000.00,030.6,025.8,000.0,038.4,031.1,32.2,0000.0,0004.96,0011.48,0004.45
2023-07-19 23:05:00,SystemResetWarning,0836.5,5.02,000.00,030.6,025.0,000.0,038.3,030.9,32.6,0000.0,0004.97,0011.71,0004.44
2023-07-19 23:06:00,SystemResetWarning,0836.5,5.00,000.00,030.4,025.0,000.0,038.3,030.7,31.2,0000.0,0004.93,0011.50,0004.40
2023-07-19 23:07:00,SystemResetWarning,0836.5,5.00,000.00,030.3,025.4,000.0,038.3,030.6,32.5,0000.0,0004.89,0011.04,0004.36
2023-07-19 23:08:00,SystemResetWarning,0836.5,5.00,000.00,030.2,025.8,000.0,038.4,030.7,33.7,0000.0,0004.85,0010.68,0004.31
2023-07-19 23:09:00,SystemResetWarning,0836.5,5.00,000.00,030.2,026.3,000.0,038.4,030.8,34.2,0000.0,0004.80,0010.65,0004.27
2023-07-19 23:10:00,SystemResetWarning,0836.5,5.00,000.00,030.2,026.7,000.0,038.4,030.9,33.3,0000.0,0004.75,0010.58,0004.23
2023-07-19 23:11:00,SystemResetWarning,0836.5,5.00,000.00,030.2,027.1,000.0,038.4,031.0,33.1,0000.0,0004.71,0010.38,0004.19
2023-07-19 23:12:00,SystemResetWarning,0836.6,4.99,000.00,030.2,027.4,000.0,038.4,031.0,32.6,0000.0,0004.72,0010.07,0004.15
2023-07-19 23:13:00,SystemResetWarning,0836.6,4.99,000.00,030.2,027.7,000.0,038.4,031.1,33.7,0000.0,0004.72,0010.29,0004.12
2023-07-19 23:14:00,SystemResetWarning,0836.6,5.00,000.00,030.2,027.9,000.0,038.4,031.2,33.5,0000.0,0004.68,0009.82,0004.06
2023-07-19 23:15:00,SystemResetWarning,0836.6,4.99,000.00,030.2,027.0,000.0,038.3,031.2,32.7,0000.0,0004.63,0009.15,0004.02
2023-07-19 23:16:00,SystemResetWarning,0836.6,5.01,000.00,030.2,025.4,000.0,038.2,030.9,31.9,0000.0,0004.57,0008.70,0003.99
2023-07-19 23:17:00,SystemResetWarning,0836.6,5.00,000.00,030.1,024.9,000.0,038.1,030.7,32.4,0000.0,0004.58,0008.57,0003.98
2023-07-19 23:18:00,SystemResetWarning,0836.6,5.01,000.00,030.0,025.0,000.0,038.1,030.5,32.5,0000.0,0004.57,0008.77,0003.98
2023-07-19 23:19:00,SystemResetWarning,0836.6,5.00,000.00,029.8,025.5,000.0,038.1,030.5,32.6,0000.0,0004.56,0008.50,0003.98
2023-07-19 23:20:00,SystemResetWarning,0836.6,5.00,000.00,029.8,025.9,000.0,038.2,030.6,33.5,0000.0,0004.54,0008.36,0003.98
2023-07-19 23:21:00,SystemResetWarning,0836.7,5.01,000.00,029.8,026.4,000.0,038.2,030.7,33.9,0000.0,0004.54,0008.37,0003.99
2023-07-19 23:22:00,SystemResetWarning,0836.7,5.00,000.00,029.8,026.8,000.0,038.2,030.8,34.4,0000.0,0004.52,0008.20,0003.99
2023-07-19 23:23:00,SystemResetWarning,0836.6,4.98,000.00,029.8,027.2,000.0,038.2,030.9,36.2,0000.0,0004.48,0008.36,0003.99
2023-07-19 23:24:00,SystemResetWarning,0836.7,5.02,000.00,030.0,027.5,000.0,038.2,031.1,36.5,0000.0,0004.46,0008.40,0003.99
2023-07-19 23:25:00,SystemResetWarning,0836.8,4.99,000.00,030.3,027.7,000.0,038.2,031.2,34.1,0000.0,0004.47,0008.76,0004.00
2023-07-19 23:26:00,SystemResetWarning,0836.8,5.00,000.00,030.5,027.9,000.0,038.2,031.3,34.0,0000.0,0004.46,0008.76,0004.00
2023-07-19 23:27:00,SystemResetWarning,0836.8,5.01,000.00,030.7,027.5,000.0,038.2,031.3,31.9,0000.0,0004.46,0008.76,0004.00
2023-07-19 23:28:00,SystemResetWarning,0836.8,4.98,000.00,030.7,025.9,000.0,038.1,031.1,30.7,0000.0,0004.41,0008.63,0003.99
2023-07-19 23:29:00,SystemResetWarning,0836.8,5.00,000.00,030.7,025.1,000.0,038.1,030.9,31.7,0000.0,0004.38,0008.13,0003.98
2023-07-19 23:30:00,SystemResetWarning,0836.7,5.01,000.00,030.6,025.1,000.0,038.1,030.6,33.0,0000.0,0004.40,0008.09,0003.98
2023-07-19 23:31:00,SystemResetWarning,0836.7,5.01,000.00,030.5,025.5,000.0,038.2,030.6,33.9,0000.0,0004.41,0008.53,0003.97
2023-07-19 23:32:00,SystemResetWarning,0836.7,5.00,000.00,030.4,025.9,000.0,038.3,030.7,33.5,0000.0,0004.40,0008.77,0003.96
2023-07-19 23:33:00,SystemResetWarning,0836.7,5.00,000.00,030.4,026.3,000.0,038.3,030.8,32.5,0000.0,0004.41,0008.77,0003.96
2023-07-19 23:34:00,SystemResetWarning,0836.7,5.00,000.00,030.4,026.7,000.0,038.4,030.9,32.6,0000.0,0004.39,0008.51,0003.95
2023-07-19 23:35:00,SystemResetWarning,0836.7,5.01,000.00,030.4,027.1,000.0,038.4,031.0,31.9,0000.0,0004.38,0008.37,0003.95
2023-07-19 23:36:00,SystemResetWarning,0836.7,5.00,000.00,030.4,027.4,000.0,038.4,031.1,30.9,0000.0,0004.37,0007.88,0003.94
2023-07-19 23:37:00,SystemResetWarning,0836.7,4.99,000.00,030.4,027.7,000.0,038.5,031.1,31.3,0000.0,0004.35,0007.89,0003.93
2023-07-19 23:38:00,SystemResetWarning,0836.7,4.99,000.00,030.4,027.9,000.0,038.5,031.2,30.4,0000.0,0004.31,0007.98,0003.90
2023-07-19 23:39:00,SystemResetWarning,0836.7,5.00,000.00,030.5,027.8,000.0,038.5,031.3,29.0,0000.0,0004.28,0007.98,0003.88
2023-07-19 23:40:00,SystemResetWarning,0836.7,5.00,000.00,030.5,026.3,000.0,038.4,031.0,29.0,0000.0,0004.30,0008.07,0003.87
2023-07-19 23:41:00,SystemResetWarning,0836.6,5.00,000.00,030.4,025.1,000.0,038.2,030.8,29.3,0000.0,0004.28,0008.03,0003.86
2023-07-19 23:42:00,SystemResetWarning,0836.7,5.00,000.00,030.3,025.0,000.0,038.2,030.6,29.9,0000.0,0004.28,0007.73,0003.87
2023-07-19 23:43:00,SystemResetWarning,0836.7,5.02,000.00,030.1,025.3,000.0,038.2,030.5,29.7,0000.0,0004.26,0007.36,0003.86
2023-07-19 23:44:00,SystemResetWarning,0836.8,4.99,000.00,030.0,025.7,000.0,038.3,030.6,29.8,0000.0,0004.25,0007.90,0003.86
2023-07-19 23:45:00,SystemResetWarning,0836.7,4.99,000.00,030.0,026.2,000.0,038.3,030.7,29.7,0000.0,0004.27,0007.96,0003.86
2023-07-19 23:46:00,SystemResetWarning,0836.8,5.00,000.00,030.0,026.6,000.0,038.3,030.8,28.3,0000.0,0004.28,0007.91,0003.85
2023-07-19 23:47:00,SystemResetWarning,0836.8,5.01,000.00,030.0,027.0,000.0,038.3,030.9,29.5,0000.0,0004.24,0007.92,0003.83
2023-07-19 23:48:00,SystemResetWarning,0836.8,5.01,000.00,030.0,027.3,000.0,038.3,031.0,30.1,0000.0,0004.22,0008.67,0003.83
2023-07-19 23:49:00,SystemResetWarning,0836.8,5.00,000.00,030.0,027.6,000.0,038.3,031.1,30.2,0000.0,0004.25,0009.02,0003.84
2023-07-19 23:50:00,SystemResetWarning,0836.8,5.00,000.00,030.0,027.8,000.0,038.3,031.1,30.0,0000.0,0004.27,0009.05,0003.85
2023-07-19 23:51:00,SystemResetWarning,0836.8,4.98,000.00,030.1,027.4,000.0,038.2,031.1,29.7,0000.0,0004.25,0008.97,0003.85
2023-07-19 23:52:00,SystemResetWarning,0836.8,5.00,000.00,030.0,025.7,000.0,038.1,030.9,29.6,0000.0,0004.24,0008.98,0003.86
2023-07-19 23:53:00,SystemResetWarning,0836.8,5.01,000.00,029.9,024.9,000.0,038.0,030.7,28.8,0000.0,0004.23,0009.02,0003.86
2023-07-19 23:54:00,SystemResetWarning,0836.7,5.01,000.00,029.8,024.9,000.0,038.0,030.5,29.1,0000.0,0004.25,0009.08,0003.86
2023-07-19 23:55:00,SystemResetWarning,0836.6,5.01,000.00,029.7,025.3,000.0,038.0,030.5,28.7,0000.0,0004.24,0008.53,0003.86
2023-07-19 23:56:00,SystemResetWarning,0836.6,4.99,000.00,029.6,025.8,000.0,038.0,030.5,28.7,0000.0,0004.23,0008.41,0003.86
2023-07-19 23:57:00,SystemResetWarning,0836.6,5.00,000.00,029.6,026.3,000.0,038.0,030.6,28.4,0000.0,0004.26,0008.49,0003.86
2023-07-19 23:58:00,SystemResetWarning,0836.6,5.00,000.00,029.6,026.7,000.0,038.0,030.7,28.5,0000.0,0004.26,0008.50,0003.87
2023-07-19 23:59:00,SystemResetWarning,0836.6,5.00,000.00,029.6,027.0,000.0,038.0,030.8,28.2,0000.0,0004.31,0007.84,0003.88
